User: anonymous   Login
Location: Chandolas
(44.4033°N, 4.2533°E)
Time: 15:02:27
(UTC+00:00)
Language:

H-2A R/B - Orbit

View from above orbital plane
View from above orbital plane
View from above satellite
View from above satellite

Ground track
Ground track

The orbit data is extracted from the following two-line orbital elements,

1 28932U 06002B   20025.20066834  .00000122  00000-0  17474-4 0  9992
2 28932  98.3087   7.2224 0090115  73.6776 297.6356 14.92126521759732
Epoch (UTC): 25 January 2020 04:48:57
Eccentricity: 0.0090115
inclination: 98.3087°
perigee height: 528 km
apogee height: 654 km
right ascension of ascending node: 7.2224°
argument of perigee: 73.6776°
revolutions per day: 14.92126521
mean anomaly at epoch: 297.6356°
orbit number at epoch: 75973

The dashed part of the orbit path shows where the satellite is in the earth's shadow,  

DLR